Lid_Strength_Index
11 14 15 14 10 10 8 7 6 7 6 5 7 5 3 1 1 1 1 0 -0 -0 -0 -1 -1 -1 -1 -1 -1 -1 -1 -1
12 13 11 10 9 8 8 7 7 7 7 4 3 3 3 1 1 1 1 0 -0 -0 -0 -1 -1 -1 -1 -1 -1 -1 -1 -1
14 12 9 8 8 9 9 9 8 7 7 5 4 3 3 2 1 1 1 0 -0 -0 -0 -1 -1 -1 -1 -1 -1 -1 -1 -1
15 12 9 8 8 8 9 8 7 7 7 6 4 4 4 6 3 1 1 0 -0 -0 -0 -0 -1 -1 -1 -1 -1 -1 -1 -1
13 12 10 9 8 9 9 8 8 7 7 6 4 4 4 5 4 1 0 0 0 -0 -0 -1 -0 -0 -1 -1 -1 -1 -0 -1
13 12 11 9 8 9 8 8 6 6 8 9 6 5 6 5 5 2 1 1 0 0 -0 -0 -0 -1 -1 -1 -1 -1 -1 -1
14 13 12 10 10 8 7 8 7 7 6 5 5 5 7 7 5 5 1 1 1 0 0 0 -0 -0 -1 -1 -1 -1 -1 -1
10 11 11 10 10 9 9 9 9 8 6 5 5 5 6 8 8 6 3 2 1 1 1 0 -0 -0 -0 -0 -0 -0 -0 -0
9 8 9 10 10 8 9 11 9 9 7 6 6 6 7 7 7 8 7 2 2 2 1 1 1 0 0 -0 -0 -0 -0 -0
8 8 10 10 9 9 9 8 7 7 7 7 7 7 7 7 7 6 5 3 2 2 2 1 1 0 0 0 0 0 0 -0
7 8 9 8 9 9 8 6 5 6 6 6 6 6 6 6 6 5 5 4 2 1 3 2 2 0 0 0 1 0 1 -0
8 8 9 9 8 8 7 6 6 6 6 5 5 5 5 5 5 5 4 4 2 1 1 1 2 1 1 0 0 1 1 0
8 8 8 7 9 9 6 5 6 5 5 4 4 4 5 5 4 4 3 3 2 1 1 1 1 1 1 1 1 1 1 1
8 7 7 8 12 8 6 6 6 6 5 5 5 5 5 4 5 4 3 3 2 1 1 1 1 1 1 1 1 1 1 0
10 8 8 9 11 7 6 7 7 7 6 6 5 5 5 4 4 4 3 2 2 1 1 1 1 1 1 2 1 1 0 0
12 8 8 10 10 7 6 6 7 7 6 5 5 5 4 3 4 4 4 3 3 2 2 1 1 2 1 1 1 0 0 0
9 8 9 10 9 8 7 7 7 6 6 5 5 4 3 3 3 2 2 2 2 2 2 2 3 2 2 2 1 1 1 0
9 7 8 9 9 8 7 7 7 7 6 6 5 5 4 3 3 3 2 2 2 2 3 2 2 2 1 1 1 1 1 1
11 9 8 9 11 10 8 7 6 6 6 6 6 5 4 4 3 3 3 3 2 2 2 3 1 1 1 1 1 2 1 1
9 11 15 10 16 11 10 9 8 7 7 6 5 5 4 4 4 3 3 2 2 2 2 2 1 2 2 3 3 2 2 1